Weather History for KLCI - December, 2013

Change the Weather History Date:

Friday, December 13, 2013

  Actual Average Record
Temperature  
Mean Temperature 14 °F -  
Max Temperature 23 °F 33 °F 53 °F (2010)
Min Temperature 5 °F 17 °F -2 °F (1988)
Degree Days  
Heating Degree Days 51    
Moisture  
Dew Point 1 °F    
Average Humidity 58    
Maximum Humidity 79    
Minimum Humidity 43    
Precipitation  
Precipitation 0.00 in - - ()
Sea Level Pressure  
Sea Level Pressure 30.04 in    
Wind  
Wind Speed 10 mph (WSW)    
Max Wind Speed 21 mph    
Max Gust Speed 26 mph    
Visibility 10 miles    
Events      
Averages and records for this station are not official NWS values.
T = Trace of Precipitation, MM = Missing Value Source: NWS Daily Summary

Daily Weather History Graph

Daily Weather History Graph

Search for Another Location

Airport or City:

Trip Planner

Search our weather history database for the weather conditions in past years. The results will help you decide how hot, cold, wet, or windy it might be!

Date:

Astronomy

Dec. 13, 2013 Rise Set
Actual Time 7:10 AM EST 4:09 PM EST
Civil Twilight 6:37 AM EST 4:42 PM EST
Nautical Twilight 6:01 AM EST 5:18 PM EST
Astronomical Twilight 5:26 AM EST 5:53 PM EST
Moon 1:54 PM EST (12/13) 3:25 AM EST (12/13)
Length of Visible Light 10h 04m
Length of Day
8h 58m
Waxing Gibbous, 88% of the Moon is Illuminated
Dec 13
Waxing Gibbous
Dec 17
Full
Dec 25
Last Quarter
Jan 1
New
Jan 7
First Quarter

Hourly Weather History & Observations

Time (EST) Temp. Windchill Dew Point Humidity Pressure Visibility Wind Dir Wind Speed Gust Speed Precip Events Conditions
12:15 AM 14.0 °F -0.2 °F 1.4 °F 57% 29.94 in 10.0 mi SSW 12.7 mph - N/A   Clear
12:35 AM 12.2 °F -1.0 °F 1.4 °F 62% 29.93 in 10.0 mi SW 10.4 mph - N/A   Clear
12:55 AM 12.2 °F -1.0 °F 1.4 °F 62% 29.93 in 10.0 mi SSW 10.4 mph - N/A   Clear
1:15 AM 12.2 °F -0.2 °F 1.4 °F 62% 29.93 in 10.0 mi SW 9.2 mph - N/A   Clear
1:35 AM 12.2 °F -0.2 °F 1.4 °F 62% 29.92 in 10.0 mi SSW 9.2 mph - N/A   Clear
1:55 AM 10.4 °F -2.4 °F 1.4 °F 67% 29.92 in 10.0 mi SW 9.2 mph - N/A   Clear
2:15 AM 12.2 °F -0.2 °F 1.4 °F 62% 29.92 in 10.0 mi SW 9.2 mph - N/A   Clear
2:35 AM 12.2 °F -3.1 °F 1.4 °F 62% 29.91 in 10.0 mi SSW 13.8 mph - N/A   Clear
2:55 AM 12.2 °F -0.2 °F 1.4 °F 62% 29.91 in 10.0 mi SSW 9.2 mph - N/A   Clear
3:15 AM 12.2 °F -2.5 °F 1.4 °F 62% 29.89 in 10.0 mi SSW 12.7 mph - N/A   Clear
3:35 AM 12.2 °F -3.7 °F 3.2 °F 67% 29.88 in 10.0 mi SSW 15.0 mph - N/A   Clear
3:55 AM 12.2 °F -1.0 °F 3.2 °F 67% 29.88 in 10.0 mi SSW 10.4 mph - N/A   Clear
4:15 AM 12.2 °F -0.2 °F 1.4 °F 62% 29.88 in 10.0 mi SSW 9.2 mph - N/A   Clear
4:35 AM 12.2 °F -1.8 °F 3.2 °F 67% 29.87 in 10.0 mi SSW 11.5 mph - N/A   Clear
4:55 AM 12.2 °F -1.8 °F 3.2 °F 67% 29.87 in 10.0 mi SSW 11.5 mph - N/A   Clear
5:15 AM 12.2 °F -1.8 °F 1.4 °F 62% 29.88 in 10.0 mi SW 11.5 mph - N/A   Clear
5:35 AM 12.2 °F -1.0 °F 3.2 °F 67% 29.88 in 10.0 mi SW 10.4 mph - N/A   Clear
5:55 AM 12.2 °F -0.2 °F 3.2 °F 67% 29.89 in 10.0 mi SW 9.2 mph - N/A   Clear
6:15 AM 12.2 °F -0.2 °F 3.2 °F 67% 29.89 in 10.0 mi SW 9.2 mph - N/A   Clear
6:35 AM 12.2 °F 0.7 °F 3.2 °F 67% 29.89 in 10.0 mi SW 8.1 mph - N/A   Clear
6:55 AM 12.2 °F 1.7 °F 3.2 °F 67% 29.90 in 10.0 mi WSW 6.9 mph - N/A   Clear
7:15 AM 12.2 °F 0.7 °F 3.2 °F 67% 29.91 in 10.0 mi SW 8.1 mph - N/A   Clear
7:35 AM 12.2 °F -0.2 °F 3.2 °F 67% 29.91 in 10.0 mi SW 9.2 mph - N/A   Clear
7:55 AM 14.0 °F 2.9 °F 5.0 °F 67% 29.92 in 10.0 mi WSW 8.1 mph - N/A   Clear
8:15 AM 14.0 °F 3.9 °F 6.8 °F 73% 29.93 in 10.0 mi WSW 6.9 mph - N/A   Clear
8:35 AM 15.8 °F 6.1 °F 6.8 °F 68% 29.94 in 10.0 mi WSW 6.9 mph - N/A   Clear
8:55 AM 15.8 °F 5.1 °F 8.6 °F 73% 29.95 in 9.0 mi SW 8.1 mph - N/A   Scattered Clouds
9:15 AM 15.8 °F 5.1 °F 8.6 °F 73% 29.96 in 10.0 mi WSW 8.1 mph - N/A   Scattered Clouds
9:35 AM 17.6 °F 8.2 °F 8.6 °F 68% 29.97 in 2.0 mi West 6.9 mph - N/A   Overcast
9:55 AM 17.6 °F 7.3 °F 10.4 °F 73% 29.97 in 3.0 mi WSW 8.1 mph - N/A   Scattered Clouds
10:15 AM 17.6 °F 8.2 °F 12.2 °F 79% 29.97 in 3.0 mi WSW 6.9 mph - N/A   Clear
10:35 AM 19.4 °F 10.4 °F 12.2 °F 74% 29.97 in 10.0 mi West 6.9 mph - N/A   Clear
10:55 AM 19.4 °F 8.6 °F 8.6 °F 63% 29.97 in 10.0 mi West 9.2 mph - N/A   Partly Cloudy
11:15 AM 21.2 °F 10.9 °F 8.6 °F 58% 29.97 in 10.0 mi WNW 9.2 mph - N/A   Clear
11:35 AM 19.4 °F 7.2 °F 8.6 °F 63% 29.97 in 9.0 mi WNW 11.5 mph - N/A   Clear
11:55 AM 19.4 °F 8.6 °F 8.6 °F 63% 29.97 in 10.0 mi West 9.2 mph - N/A   Clear
12:15 PM 21.2 °F 10.1 °F 8.6 °F 58% 29.97 in 10.0 mi West 10.4 mph 20.7 mph N/A   Partly Cloudy
12:35 PM 21.2 °F 9.5 °F 8.6 °F 58% 29.97 in 10.0 mi West 11.5 mph 16.1 mph N/A   Clear
12:55 PM 21.2 °F 10.1 °F 3.2 °F 46% 29.97 in 10.0 mi West 10.4 mph 23.0 mph N/A   Clear
1:15 PM 21.2 °F 12.6 °F 3.2 °F 46% 29.97 in 10.0 mi West 6.9 mph 18.4 mph N/A   Scattered Clouds
1:35 PM 23.0 °F 8.0 °F 3.2 °F 43% 29.97 in 10.0 mi WSW 20.7 mph 26.5 mph N/A   Overcast
1:55 PM 21.2 °F 10.1 °F 3.2 °F 46% 29.98 in 10.0 mi NW 10.4 mph 20.7 mph N/A   Overcast
2:15 PM 21.2 °F 11.7 °F 3.2 °F 46% 30.00 in 10.0 mi WNW 8.1 mph 17.3 mph N/A   Mostly Cloudy
2:35 PM 19.4 °F 8.6 °F 3.2 °F 49% 30.01 in 10.0 mi NW 9.2 mph - N/A   Partly Cloudy
2:55 PM 19.4 °F 7.9 °F 1.4 °F 46% 30.02 in 10.0 mi West 10.4 mph 19.6 mph N/A   Clear
3:15 PM 21.2 °F 10.1 °F 3.2 °F 46% 30.03 in 10.0 mi WNW 10.4 mph 18.4 mph N/A   Mostly Cloudy
3:35 PM 19.4 °F 7.2 °F 3.2 °F 49% 30.06 in 10.0 mi WNW 11.5 mph 18.4 mph N/A   Mostly Cloudy
3:55 PM 19.4 °F 11.5 °F 3.2 °F 49% 30.07 in 10.0 mi NW 5.8 mph - N/A   Mostly Cloudy
4:15 PM 17.6 °F 7.3 °F 3.2 °F 53% 30.08 in 10.0 mi West 8.1 mph 16.1 mph N/A   Mostly Cloudy
4:35 PM 17.6 °F 5.7 °F 3.2 °F 53% 30.10 in 10.0 mi NW 10.4 mph - N/A   Partly Cloudy
4:55 PM 15.8 °F 6.1 °F 3.2 °F 58% 30.11 in 10.0 mi WNW 6.9 mph - N/A   Clear
5:15 PM 15.8 °F 4.2 °F 1.4 °F 53% 30.13 in 10.0 mi West 9.2 mph 17.3 mph N/A   Clear
5:35 PM 14.0 °F 2.0 °F -0.4 °F 53% 30.14 in 10.0 mi WNW 9.2 mph 19.6 mph N/A   Clear
5:55 PM 14.0 °F 5.1 °F -0.4 °F 53% 30.15 in 10.0 mi West 5.8 mph - N/A   Clear
6:15 PM 12.2 °F 6.1 °F -0.4 °F 57% 30.17 in 10.0 mi WNW 3.5 mph - N/A   Clear
6:35 PM 12.2 °F -1.0 °F -2.2 °F 53% 30.19 in 10.0 mi NW 10.4 mph - N/A   Clear
6:55 PM 12.2 °F 1.7 °F -4.0 °F 48% 30.20 in 10.0 mi West 6.9 mph - N/A   Clear
7:15 PM 10.4 °F -0.4 °F -5.8 °F 48% 30.21 in 10.0 mi WNW 6.9 mph - N/A   Clear
7:35 PM 10.4 °F 0.8 °F -5.8 °F 48% 30.23 in 10.0 mi WNW 5.8 mph - N/A   Clear
7:55 PM 8.6 °F -3.7 °F -5.8 °F 52% 30.24 in 10.0 mi NNW 8.1 mph 16.1 mph N/A   Clear
8:15 PM 8.6 °F -4.7 °F -7.6 °F 48% 30.26 in 10.0 mi NW 9.2 mph - N/A   Clear
8:35 PM 8.6 °F -4.7 °F -7.6 °F 48% 30.26 in 10.0 mi NW 9.2 mph - N/A   Clear
8:55 PM 8.6 °F -2.6 °F -7.6 °F 48% 30.28 in 10.0 mi WNW 6.9 mph - N/A   Clear
9:15 PM 8.6 °F -2.6 °F -7.6 °F 48% 30.29 in 10.0 mi WNW 6.9 mph - N/A   Clear
9:35 PM 6.8 °F - -7.6 °F 52% 30.29 in 10.0 mi Calm Calm - N/A   Clear
9:55 PM 6.8 °F -2.0 °F -7.6 °F 52% 30.30 in 10.0 mi West 4.6 mph - N/A   Clear
10:15 PM 6.8 °F - -9.4 °F 48% 30.30 in 10.0 mi Calm Calm - N/A   Clear
10:35 PM 6.8 °F -0.1 °F -7.6 °F 52% 30.31 in 10.0 mi WNW 3.5 mph - N/A   Clear
10:55 PM 6.8 °F -2.0 °F -9.4 °F 48% 30.32 in 10.0 mi WSW 4.6 mph - N/A   Clear
11:15 PM 5.0 °F -10.0 °F -7.6 °F 56% 30.33 in 10.0 mi WSW 10.4 mph - N/A   Clear
11:35 PM 6.8 °F -3.5 °F -9.4 °F 48% 30.34 in 10.0 mi WSW 5.8 mph - N/A   Clear
11:55 PM 5.0 °F -8.1 °F -7.6 °F 56% 30.35 in 10.0 mi WSW 8.1 mph - N/A   Clear